Regional Weather Roundup
Issued by NWS Sioux Falls, SD

Home | Current Version | Previous Version | Text Only | Print | Product List | Glossary Off
Versions: 1 2 3 4 5 6 7 8 9 10 11 12 13 14 15 16 17 18 19 20 21 22 23 24 25 26 27 28 29 30 31 32 33 34 35 36 37 38 39 40 41 42 43 44 45 46 47 48 49 50

000
ASUS43 KFSD 271102
RWRFSD

WEATHER ROUNDUP FOR SE SOUTH DAKOTA/SW MINNESOTA/NW IOWA
NATIONAL WEATHER SERVICE SIOUX FALLS SD
500 AM CST TUE JAN 27 2015

NOTE: "FAIR" INDICATES FEW OR NO CLOUDS BELOW 12,000 FEET WITH NO
SIGNIFICANT WEATHER AND OR OBSTRUCTIONS TO VISIBILITY.


SDZ038>040-050-052>070-271200-
SOUTHEAST SOUTH DAKOTA

CITY           SKY/WX    TMP DP  RH WIND       PRES   REMARKS
CHAMBERLAIN    NOT AVBL
HURON          CLEAR     26  25  96 E6        30.02S WCI  19
MADISON        FAIR      27  27 100 S5        30.04R WCI  21
MITCHELL       CLEAR     28  26  92 E5        30.04S WCI  23
SIOUX FALLS    CLEAR     26  23  88 CALM      30.04S
WINNER         FAIR      39  31  72 SE6       29.95F
YANKTON        CLEAR     28  27  93 CALM      30.06S VSB 1
$$

MNZ071-072-080-081-089-090-097-098-271200-
SOUTHWEST MINNESOTA

CITY           SKY/WX    TMP DP  RH WIND       PRES   REMARKS
FAIRMONT       CLEAR     28  25  86 N5        30.06F WCI  23
JACKSON        CLOUDY    32  30  93 NE6       30.06R WCI  26
LUVERNE        PTCLDY    30  28  93 E3        30.06R
MARSHALL       CLOUDY    28  27  93 CALM      30.08S
MONTEVIDEO     CLOUDY    28  28 100 CALM      30.09R
PIPESTONE      FOG       30  28  93 E5        30.03S VSB 3/4 WCI  25
REDWOOD FALLS  CLOUDY    32  28  85 CALM      30.08R
TRACY          FOG       29  29  98 CALM      30.07R VSB 1/4
WINDOM         CLOUDY    30  28  93 CALM      30.06R
WORTHINGTON    CLOUDY    30  28  93 N5        30.06R WCI  25
$$

IAZ001>003-012>014-020>022-031-032-NEZ013-014-SDZ071-271200-
NORTHWEST IOWA

CITY           SKY/WX    TMP DP  RH WIND       PRES   REMARKS
ESTHERVILLE    CLEAR     28  27  96 N6        30.06S WCI  22
SIOUX CITY     FOG       28  26  92 CALM      30.07S VSB 1/2
SPENCER        PTCLDY    30  28  92 N6        30.07S WCI  24
$$

ABBREVIATIONS USED IN REMARKS
   TC - TEMPERATURE IN CELSIUS
  WCI - WIND CHILL INDEX
   HX - HEAT INDEX
  VSB - VISIBILITY




USA.gov is the U.S. government's official web portal to all federal, state and local government web resources and services.